Regional Weather Roundup
Issued by NWS

Home | Current Version | Previous Version | Graphics & Text | Print | Product List | Glossary On
Versions: 1 2 3 4 5 6 7 8 9 10 11 12 13 14 15 16 17 18 19 20 21 22 23 24 25 26 27 28 29 30 31 32 33 34 35 36 37 38 39 40 41 42 43 44 45 46 47 48 49 50
000
ASUS43 KLOT 261703
RWRIL

ILLINOIS REGIONAL WEATHER ROUNDUP
NATIONAL WEATHER SERVICE CHICAGO/ROMEOVILLE IL
1200 PM CDT SUN MAR 26 2017

NOTE: "FAIR" INDICATES FEW OR NO CLOUDS BELOW 12,000 FEET WITH NO
SIGNIFICANT WEATHER AND/OR OBSTRUCTIONS TO VISIBILITY.

* THESE STATIONS ARE NOT UNDER NWS QUALITY CONTROL. THEY ALSO MAY NOT
  REPORT WEATHER SUCH AS PRECIPITATION OR FOG.

ILZ001-002-007-009-015-016-024-261800-
NORTHWEST ILLINOIS

CITY           SKY/WX    TMP DP  RH WIND       PRES   REMARKS
MOLINE         CLOUDY    55  51  86 SW9       29.81S
STERLING*      CLOUDY    56  52  86 VRB6      29.83S
SAVANNA*       DRIZZLE   52  51  97 N5        29.82F
$$

ILZ003-004-008-010-011-017-018-261800-
NORTH CENTRAL ILLINOIS

CITY           SKY/WX    TMP DP  RH WIND       PRES   REMARKS
ROCKFORD       CLOUDY    56  52  86 CALM      29.83F
FREEPORT*      CLOUDY    49  49  99 CALM      29.84S FOG
ROCHELLE*      CLOUDY    55  52  92 SW8       29.83S
DE KALB*       CLOUDY    57  53  88 S12       29.83F
PERU*          CLOUDY    54  50  84 S9        29.84S
$$

ILZ005-006-012>014-019>023-261800-
NORTHEAST ILLINOIS

CITY           SKY/WX    TMP DP  RH WIND       PRES   REMARKS
CHICAGO-OHARE  CLOUDY    58  54  86 CALM      29.82F
CHICAGO-MIDWAY CLOUDY    59  55  87 SW7       29.83F
AURORA         CLOUDY    59  54  83 S8        29.83F
LANSING*       CLOUDY    60  58  94 S8        29.84F
JOLIET*        CLOUDY    61  55  81 SW12      29.84S
WAUKEGAN       FOG       46  46 100 E3        29.83F VSB 1/4
DUPAGE AIRPORT CLOUDY    58  55  90 S8        29.82F
KANKAKEE*      CLOUDY    62  55  80 SW15      29.85F
WHEELING       CLOUDY    57  57 100 S6        29.84F
MORRIS*        CLOUDY    59  52  78 S13       29.82F
$$

LMZ740>746-261800-
SOUTHERN LAKE MICHIGAN

STATION/POSITION SKY/WX   TEMP    WIND        PRES    VSBY  WAVE
                          AIR SEA DIR/SP/G                  HT/PER
                          (F)     (DEG/KT/KT) (MB)    (MI)  (FT/S)
HARRISON CRIB              49     170/  9/ 10   N/A
BURNHAM HARBOR             47      CALM  /  1   N/A
CALUMET HARBOR             58     160/  7/ 10 1010.0F
BURNS HARBOR               56     180/ 10/ 13 1011.5F
MICHIGAN CITY              56     160/  5/  6   N/A
$$

ILZ025>027-034>036-040-047-049-050-058-095>099-261800-
WEST-CENTRAL ILLINOIS

CITY           SKY/WX    TMP DP  RH WIND       PRES   REMARKS
QUINCY         LGT RAIN  49  47  93 SW12      29.87S
GALESBURG*     CLOUDY    51  49  93 S12       29.82S
MACOMB*        CLOUDY    50  49  97 W14       29.87S
JACKSONVILLE*  CLOUDY    53  49  87 SW12      29.87S
PITTSFIELD*    CLOUDY    51  48  89 W12       29.89S
$$

ILZ028>032-037-038-041>044-048-051>054-059>061-261800-
CENTRAL ILLINOIS

CITY           SKY/WX    TMP DP  RH WIND       PRES   REMARKS
PONTIAC        CLOUDY    58  53  86 S16       29.86S
BLOOMINGTON    CLOUDY    53  49  86 SW13      29.87R
DECATUR        CLOUDY    57  49  74 SW16      29.88S
PEORIA         CLOUDY    52  51  97 SW14      29.85S FOG
LACON*         CLOUDY    53  51  93 SW10      29.84S
LINCOLN*       CLOUDY    55  52  89 S6        29.87F
SPRINGFIELD    CLOUDY    54  49  83 SW12      29.88S
TAYLORVILLE    NOT AVBL
$$

ILZ033-039-045-046-055>057-062-063-261800-
EAST-CENTRAL ILLINOIS

CITY           SKY/WX    TMP DP  RH WIND       PRES   REMARKS
CHAMPAIGN      CLOUDY    61  50  67 SW18      29.87S
RANTOUL*       CLOUDY    62  54  75 SW14      29.86F
MATTOON        CLOUDY    59  51  75 SW10G18   29.88S
PARIS*         CLOUDY    61  54  78 S16G22    29.90S
$$

ILZ079-100>102-261800-
SOUTHWEST ILLINOIS

CITY           SKY/WX    TMP DP  RH WIND       PRES   REMARKS
ALTON          CLOUDY    52  48  87 S10       29.92R
CAHOKIA*       CLOUDY    54  47  77 SW9       29.92S
SPARTA*        CLOUDY    53  47  80 SW7       29.94F
$$

ILZ064>066-069>071-074>076-080>082-084>086-088>090-092>094-261800-
SOUTH-CENTRAL ILLINOIS

CITY           SKY/WX    TMP DP  RH WIND       PRES   REMARKS
CARBONDALE     CLOUDY    56  48  74 W13       29.94F
CAIRO*         CLOUDY    59  49  70 W13G18    29.96F
EFFINGHAM*     CLOUDY    58  52  79 S12       29.92F
MARION         CLOUDY    59  48  67 SW12      29.95F
MT. VERNON     CLOUDY    57  49  74 SW16      29.93F
CENTRALIA*     CLOUDY    54  49  82 SW10      29.92S
SALEM*         CLOUDY    55  49  80 SW14      29.92S
METROPOLIS*    PTSUNNY   60  51  71 W13       29.97S
$$

ILZ067-068-072-073-078-083-087-091-261800-
SOUTHEAST ILLINOIS

CITY           SKY/WX    TMP DP  RH WIND       PRES   REMARKS
LAWRENCEVILLE  LGT RAIN  58  55  90 SW15      29.93S
FLORA*         CLOUDY    61  51  69 SW15G22   29.92F
FAIRFIELD*     CLOUDY    58  50  74 SW8       29.92F
HARRISBURG*    CLOUDY    59  51  74 SW15      29.95S
ROBINSON*      LGT RAIN  57  55  91 SW13G18   29.92S
CARMI*         PTSUNNY   59  55  84 W12       29.93F
$$

ABBREVIATIONS USED IN REMARKS
   TC - TEMPERATURE IN CELSIUS
  WCI - WIND CHILL INDEX
   HX - HEAT INDEX
  VSB - VISIBILITY
$$




USA.gov is the U.S. government's official web portal to all federal, state and local government web resources and services.